{"data":{"norad_id":67783,"epoch":"2026-09-20T14:21:32.846112Z","epoch_age_seconds":78405,"freshness":"FRESH","line1":"1 67783U 26030V   26263.59829683  .00001822  00000+0  26794-3 0  9994","line2":"2 67783  51.9019  51.1702 0000601 123.5903 236.5117 14.79936684 34328","mean_motion":14.79936684,"eccentricity":6.01e-5,"inclination_deg":51.9019,"raan_deg":51.1702,"arg_perigee_deg":123.5903,"mean_anomaly_deg":236.5117,"bstar":0.00026794,"rev_number":3432,"period_min":97.301459958945,"perigee_km":629.10283929793,"apogee_km":629.9451601501,"semimajor_km":7007.660999724,"source":"CELESTRAK","updated_at":"2026-09-21T09:00:16.855944Z"}}